SKW5777 KDEN-KILM

Flight info

Callsign SKW5777
Flight time N/A
Altitude 39000
Route EPKEE7 DUUZE HUT SGF BNA CLT ILM
Aircraft CRJ2/M-SBDE1E2E3FGHIJ4J5J7M3RWXYZ/LB1V1D1

Departure

Time 2026-05-04 22:40
Airport Denver International Airport (KDEN)

Arrival

Time N/A
Airport Wilmington International Airport (KILM)
Time Latitude Longitude Altitude Speed Heading
2026-05-04 22:36 39.85687 -104.68322 5382 ft 0 kts 267°
2026-05-04 22:36 39.85687 -104.68340 5381 ft 4 kts 267°
2026-05-04 22:36 39.85688 -104.68399 5380 ft 7 kts 269°
2026-05-04 22:37 39.85680 -104.68491 5377 ft 13 kts 234°
2026-05-04 22:37 39.85594 -104.68517 5377 ft 15 kts 179°
2026-05-04 22:37 39.85475 -104.68519 5377 ft 17 kts 181°
2026-05-04 22:37 39.85345 -104.68519 5380 ft 18 kts 180°
2026-05-04 22:38 39.85218 -104.68532 5380 ft 11 kts 233°
2026-05-04 22:38 39.85203 -104.68669 5375 ft 19 kts 270°
2026-05-04 22:38 39.85202 -104.68883 5364 ft 27 kts 271°
2026-05-04 22:38 39.85199 -104.69156 5354 ft 32 kts 268°
2026-05-04 22:39 39.85203 -104.69478 5340 ft 29 kts 272°
2026-05-04 22:39 39.85216 -104.69664 5340 ft 9 kts 352°
2026-05-04 22:39 39.85416 -104.69658 5338 ft 66 kts 360°
2026-05-04 22:39 39.86161 -104.69649 5333 ft 141 kts
2026-05-04 22:40 39.87269 -104.69596 5741 ft 167 kts
2026-05-04 22:40 39.88398 -104.69282 6545 ft 177 kts 27°
2026-05-04 22:40 39.89176 -104.67993 7238 ft 198 kts 66°
2026-05-04 22:40 39.89354 -104.66163 7974 ft 212 kts 93°
2026-05-04 22:41 39.89052 -104.64176 8364 ft 247 kts 108°
2026-05-04 22:41 39.88365 -104.61941 8698 ft 284 kts 112°
2026-05-04 22:41 39.87564 -104.59472 9408 ft 303 kts 111°
2026-05-04 22:41 39.86726 -104.56880 9862 ft 312 kts 112°
2026-05-04 22:42 39.85883 -104.54279 10002 ft 310 kts 112°
2026-05-04 22:42 39.85041 -104.51682 10026 ft 308 kts 112°
2026-05-04 22:42 39.84205 -104.49105 10026 ft 306 kts 111°
2026-05-04 22:42 39.83364 -104.46510 10134 ft 322 kts 111°
2026-05-04 22:43 39.82475 -104.43774 10973 ft 331 kts 111°
2026-05-04 22:43 39.81572 -104.40997 11764 ft 342 kts 112°
2026-05-04 22:43 39.80623 -104.38138 12655 ft 348 kts 114°
2026-05-04 22:43 39.79618 -104.35239 13524 ft 355 kts 114°
2026-05-04 22:44 39.78622 -104.32376 14395 ft 361 kts 116°
2026-05-04 22:44 39.77583 -104.29390 15303 ft 365 kts 116°
2026-05-04 22:44 39.76526 -104.26357 16170 ft 370 kts 116°
2026-05-04 22:44 39.75449 -104.23271 16889 ft 379 kts 116°
2026-05-04 22:45 39.74353 -104.20128 17692 ft 384 kts 116°
2026-05-04 22:45 39.72103 -104.13701 19198 ft 395 kts 116°
2026-05-04 22:45 39.70948 -104.10435 19885 ft 401 kts 116°
2026-05-04 22:46 39.69773 -104.07118 20641 ft 405 kts 116°
2026-05-04 22:46 39.68591 -104.03782 21391 ft 408 kts 116°
2026-05-04 22:46 39.67391 -104.00400 21962 ft 415 kts 116°
2026-05-04 22:46 39.66168 -103.96958 22681 ft 418 kts 116°
2026-05-04 22:47 39.64865 -103.93555 23323 ft 422 kts 119°
2026-05-04 22:47 39.63474 -103.90157 23897 ft 428 kts 120°
2026-05-04 22:47 39.62058 -103.86704 24401 ft 436 kts 120°
2026-05-04 22:47 39.60615 -103.83184 24910 ft 442 kts 120°
2026-05-04 22:48 39.59201 -103.79625 25420 ft 448 kts 116°
2026-05-04 22:48 39.58062 -103.75793 25755 ft 459 kts 111°
2026-05-04 22:48 39.56972 -103.71882 26327 ft 461 kts 110°
2026-05-04 22:48 39.55873 -103.67962 26806 ft 465 kts 110°
2026-05-04 22:49 39.54757 -103.63996 27314 ft 469 kts 111°
2026-05-04 22:49 39.53627 -103.59993 27712 ft 474 kts 111°
2026-05-04 22:49 39.52481 -103.55936 28048 ft 480 kts 111°
2026-05-04 22:49 39.51316 -103.51823 28372 ft 486 kts 111°
2026-05-04 22:50 39.50147 -103.47704 28847 ft 489 kts 110°
2026-05-04 22:50 39.48966 -103.43549 29217 ft 493 kts 111°
2026-05-04 22:50 39.47771 -103.39353 29551 ft 497 kts 111°
2026-05-04 22:50 39.46566 -103.35136 29884 ft 501 kts 111°
2026-05-04 22:51 39.45390 -103.31035 30165 ft 505 kts 111°
2026-05-04 22:51 39.44155 -103.26736 30381 ft 510 kts 112°
2026-05-04 22:51 39.42911 -103.22409 30675 ft 513 kts 112°
2026-05-04 22:51 39.41658 -103.18059 30766 ft 521 kts 112°
2026-05-04 22:52 39.40382 -103.13633 30999 ft 524 kts 112°
2026-05-04 22:52 39.39097 -103.09186 31170 ft 530 kts 113°
2026-05-04 22:52 39.37804 -103.04713 31467 ft 532 kts 113°
2026-05-04 22:52 39.36491 -103.00185 31623 ft 537 kts 112°
2026-05-04 22:53 39.33549 -102.91227 31938 ft 542 kts 121°
2026-05-04 22:53 39.31822 -102.86842 32090 ft 547 kts 121°
2026-05-04 22:53 39.30088 -102.82429 32298 ft 549 kts 120°
2026-05-04 22:54 39.26574 -102.73494 32570 ft 557 kts 121°
2026-05-04 22:54 39.24792 -102.68970 32899 ft 556 kts 122°
2026-05-04 22:54 39.23030 -102.64508 33021 ft 561 kts 121°
2026-05-04 22:55 39.21247 -102.59994 33210 ft 563 kts 122°
2026-05-04 22:55 39.19447 -102.55442 33413 ft 566 kts 122°
2026-05-04 22:55 39.17654 -102.50914 33735 ft 566 kts 121°
2026-05-04 22:55 39.15849 -102.46362 33934 ft 569 kts 121°
2026-05-04 22:56 39.14040 -102.41805 34342 ft 567 kts 122°
2026-05-04 22:56 39.12225 -102.37259 34667 ft 567 kts 123°
2026-05-04 22:56 39.10401 -102.32709 35035 ft 566 kts 124°
2026-05-04 22:56 39.08589 -102.28194 35355 ft 564 kts 122°
2026-05-04 22:57 39.06778 -102.23691 35528 ft 567 kts 124°
2026-05-04 22:57 39.04952 -102.19155 35840 ft 565 kts 124°
2026-05-04 22:57 39.03139 -102.14657 36093 ft 565 kts 125°
2026-05-04 22:57 39.01312 -102.10133 36331 ft 565 kts 125°
2026-05-04 22:58 38.99488 -102.05620 36566 ft 566 kts 125°
2026-05-04 22:58 38.97663 -102.01111 36854 ft 565 kts 125°
2026-05-04 22:58 38.95841 -101.96619 37035 ft 566 kts 125°
2026-05-04 22:58 38.94010 -101.92114 37173 ft 568 kts 124°
2026-05-04 22:59 38.92170 -101.87591 37317 ft 570 kts 123°
2026-05-04 22:59 38.90322 -101.83052 37503 ft 571 kts 125°
2026-05-04 22:59 38.88538 -101.78673 37872 ft 567 kts 123°
2026-05-04 22:59 38.86702 -101.74151 38042 ft 569 kts 122°
2026-05-04 23:00 38.85082 -101.69466 38183 ft 576 kts 115°
2026-05-04 23:00 38.83860 -101.64556 38383 ft 579 kts 108°
2026-05-04 23:00 38.82815 -101.59543 38564 ft 579 kts 107°
2026-05-04 23:00 38.81771 -101.54547 38685 ft 581 kts 106°
2026-05-04 23:01 38.80723 -101.49543 38824 ft 582 kts 106°
2026-05-04 23:01 38.79662 -101.44500 38776 ft 587 kts 107°
2026-05-04 23:01 38.77528 -101.34376 38779 ft 592 kts 108°
2026-05-04 23:02 38.75351 -101.24110 38767 ft 596 kts 107°
2026-05-04 23:02 38.73165 -101.13839 38759 ft 598 kts 107°
2026-05-04 23:03 38.70960 -101.03528 38747 ft 599 kts 108°
2026-05-04 23:03 38.68744 -100.93228 38732 ft 598 kts 107°
2026-05-04 23:04 38.66522 -100.82928 38738 ft 598 kts 108°
2026-05-04 23:04 38.64295 -100.72659 38733 ft 597 kts 106°
2026-05-04 23:05 38.62052 -100.62371 38730 ft 598 kts 106°
2026-05-04 23:05 38.59809 -100.52127 38730 ft 598 kts 106°
2026-05-04 23:06 38.57556 -100.41885 38737 ft 598 kts 107°
2026-05-04 23:06 38.55295 -100.31652 38733 ft 598 kts 107°
2026-05-04 23:07 38.53027 -100.21433 38725 ft 598 kts 107°
2026-05-04 23:07 38.50748 -100.11210 38720 ft 599 kts 107°
2026-05-04 23:08 38.48454 -100.00969 38713 ft 600 kts 109°
2026-05-04 23:08 38.46133 -99.90655 38703 ft 601 kts 108°
2026-05-04 23:09 38.43811 -99.80384 38707 ft 601 kts 106°
2026-05-04 23:09 38.41483 -99.70134 38707 ft 601 kts 108°
2026-05-04 23:10 38.39142 -99.59871 38702 ft 600 kts 107°
2026-05-04 23:10 38.36800 -99.49648 38705 ft 600 kts 106°
2026-05-04 23:11 38.34450 -99.39434 38702 ft 600 kts 106°
2026-05-04 23:11 38.32103 -99.29277 38696 ft 598 kts 108°
2026-05-04 23:12 38.29737 -99.19079 38697 ft 598 kts 108°
2026-05-04 23:12 38.27370 -99.08926 38708 ft 598 kts 108°
2026-05-04 23:13 38.24987 -98.98754 38709 ft 599 kts 108°
2026-05-04 23:13 38.22592 -98.88572 38705 ft 600 kts 108°
2026-05-04 23:14 38.20191 -98.78404 38691 ft 601 kts 106°
2026-05-04 23:14 38.17774 -98.68216 38671 ft 601 kts 108°
2026-05-04 23:15 38.15348 -98.58035 38672 ft 600 kts 105°
2026-05-04 23:15 38.12916 -98.47870 38671 ft 600 kts 108°
2026-05-04 23:16 38.10474 -98.37709 38674 ft 601 kts 107°
2026-05-04 23:16 38.08049 -98.27659 38664 ft 600 kts 107°
2026-05-04 23:17 38.05589 -98.17512 38665 ft 600 kts 108°
2026-05-04 23:17 38.03115 -98.07347 38671 ft 601 kts 108°
2026-05-04 23:18 38.00627 -97.97160 38675 ft 602 kts 107°
2026-05-04 23:18 37.98894 -97.86769 38674 ft 599 kts 94°
2026-05-04 23:19 37.97652 -97.76330 38676 ft 599 kts 95°
2026-05-04 23:19 37.96394 -97.65890 38665 ft 599 kts 96°
2026-05-04 23:20 37.95121 -97.55407 38667 ft 599 kts 96°
2026-05-04 23:20 37.93841 -97.44954 38679 ft 599 kts 96°
2026-05-04 23:21 37.92556 -97.34548 38684 ft 598 kts 97°
2026-05-04 23:21 37.91275 -97.24244 38678 ft 597 kts 97°
2026-05-04 23:22 37.89975 -97.13872 38672 ft 596 kts 97°
2026-05-04 23:22 37.88686 -97.03669 38678 ft 596 kts 97°
2026-05-04 23:23 37.87363 -96.93262 38677 ft 597 kts 97°
2026-05-04 23:23 37.86024 -96.82812 38697 ft 596 kts 95°
2026-05-04 23:24 37.84686 -96.72442 38693 ft 595 kts 95°
2026-05-04 23:24 37.83339 -96.62082 38683 ft 594 kts 97°
2026-05-04 23:25 37.81984 -96.51734 38691 ft 595 kts 96°
2026-05-04 23:25 37.80622 -96.41399 38678 ft 595 kts 96°
2026-05-04 23:26 37.79257 -96.31123 38678 ft 595 kts 97°
2026-05-04 23:26 37.77874 -96.20777 38678 ft 595 kts 96°
2026-05-04 23:27 37.76480 -96.10423 38686 ft 596 kts 95°
2026-05-04 23:27 37.75079 -96.00088 38698 ft 596 kts 95°
2026-05-04 23:28 37.73668 -95.89745 38706 ft 595 kts 96°
2026-05-04 23:28 37.72245 -95.79387 38705 ft 595 kts 96°
2026-05-04 23:29 37.70815 -95.69051 38702 ft 594 kts 97°
2026-05-04 23:29 37.69382 -95.58759 38715 ft 595 kts 97°
2026-05-04 23:30 37.67932 -95.48418 38723 ft 595 kts 95°
2026-05-04 23:30 37.66474 -95.38088 38726 ft 595 kts 97°
2026-05-04 23:31 37.65025 -95.27899 38718 ft 594 kts 97°
2026-05-04 23:31 37.63551 -95.17583 38721 ft 595 kts 96°
2026-05-04 23:32 37.62068 -95.07277 38723 ft 596 kts 96°
2026-05-04 23:32 37.60575 -94.96970 38722 ft 595 kts 97°
2026-05-04 23:33 37.59074 -94.86673 38718 ft 595 kts 96°
2026-05-04 23:33 37.57559 -94.76345 38739 ft 594 kts 96°
2026-05-04 23:34 37.56035 -94.66023 38727 ft 593 kts 96°
2026-05-04 23:34 37.54506 -94.55734 38735 ft 592 kts 97°
2026-05-04 23:35 37.52973 -94.45474 38738 ft 593 kts 97°
2026-05-04 23:35 37.51432 -94.35237 38739 ft 593 kts 96°
2026-05-04 23:36 37.49908 -94.25151 38744 ft 591 kts 97°
2026-05-04 23:36 37.48354 -94.14946 38737 ft 591 kts 97°
2026-05-04 23:37 37.46790 -94.04733 38734 ft 591 kts 98°
2026-05-04 23:37 37.45218 -93.94540 38741 ft 592 kts 96°
2026-05-04 23:38 37.43636 -93.84335 38751 ft 592 kts 97°
2026-05-04 23:38 37.42048 -93.74150 38753 ft 591 kts 97°
2026-05-04 23:39 37.40447 -93.63952 38763 ft 590 kts 97°
2026-05-04 23:39 37.38848 -93.53829 38770 ft 588 kts 96°
2026-05-04 23:40 37.37233 -93.43653 38774 ft 587 kts 97°
2026-05-04 23:40 37.35651 -93.33738 38779 ft 586 kts 96°
2026-05-04 23:41 37.34093 -93.23633 38775 ft 585 kts 97°
2026-05-04 23:41 37.32546 -93.13595 38780 ft 584 kts 97°
2026-05-04 23:42 37.30983 -93.03513 38784 ft 584 kts 97°
2026-05-04 23:42 37.29412 -92.93443 38791 ft 584 kts 96°
2026-05-04 23:43 37.27840 -92.83423 38791 ft 583 kts 97°
2026-05-04 23:43 37.26261 -92.73415 38802 ft 581 kts 97°
2026-05-04 23:44 37.24676 -92.63434 38803 ft 582 kts 97°
2026-05-04 23:44 37.23075 -92.53405 38786 ft 582 kts 97°
2026-05-04 23:45 37.21472 -92.43423 38779 ft 582 kts 96°
2026-05-04 23:45 37.19863 -92.33455 38783 ft 581 kts 97°
2026-05-04 23:46 37.18248 -92.23515 38790 ft 580 kts 96°
2026-05-04 23:46 37.17168 -92.16897 38784 ft 580 kts 97°
2026-05-04 23:47 37.14990 -92.03617 38782 ft 580 kts 97°
2026-05-04 23:47 37.13344 -91.93653 38790 ft 581 kts 97°
2026-05-04 23:48 37.11697 -91.83732 38783 ft 579 kts 98°
2026-05-04 23:48 37.10039 -91.73797 38794 ft 577 kts 98°
2026-05-04 23:49 37.08389 -91.63973 38785 ft 574 kts 97°
2026-05-04 23:49 37.06730 -91.54140 38795 ft 572 kts 97°
2026-05-04 23:50 37.05076 -91.44388 38791 ft 571 kts 97°
2026-05-04 23:50 37.03418 -91.34668 38784 ft 569 kts 98°
2026-05-04 23:51 37.01767 -91.25036 38792 ft 566 kts 98°
2026-05-04 23:51 37.00099 -91.15352 38787 ft 564 kts 98°
2026-05-04 23:52 36.98432 -91.05729 38773 ft 562 kts 98°
2026-05-04 23:52 36.96765 -90.96154 38773 ft 560 kts 98°
2026-05-04 23:53 36.95098 -90.86629 38772 ft 558 kts 98°
2026-05-04 23:53 36.93426 -90.77117 38769 ft 557 kts 98°
2026-05-04 23:54 36.91757 -90.67671 38777 ft 557 kts 97°
2026-05-04 23:54 36.90075 -90.58197 38783 ft 557 kts 98°
2026-05-04 23:55 36.88420 -90.48922 38782 ft 557 kts 97°
2026-05-04 23:56 36.85874 -90.34737 38787 ft 556 kts 98°
2026-05-04 23:56 36.84177 -90.25342 38805 ft 556 kts 98°
2026-05-04 23:57 36.82465 -90.15910 38800 ft 557 kts 98°
2026-05-04 23:57 36.80747 -90.06482 38797 ft 557 kts 98°
2026-05-04 23:58 36.79009 -89.97000 38791 ft 557 kts 98°
2026-05-04 23:58 36.77262 -89.87511 38809 ft 557 kts 97°
2026-05-04 23:59 36.75504 -89.78002 38812 ft 556 kts 98°
2026-05-04 23:59 36.73750 -89.68566 38813 ft 554 kts 98°
2026-05-05 00:00 36.71995 -89.59170 38836 ft 554 kts 98°
2026-05-05 00:00 36.70236 -89.49792 38837 ft 553 kts 99°
2026-05-05 00:01 36.68471 -89.40424 38843 ft 552 kts 99°
2026-05-05 00:01 36.66722 -89.31186 38825 ft 550 kts 99°
2026-05-05 00:02 36.64977 -89.22012 38849 ft 549 kts 100°
2026-05-05 00:02 36.63207 -89.12739 38830 ft 549 kts 99°
2026-05-05 00:03 36.61429 -89.03476 38832 ft 547 kts 100°
2026-05-05 00:03 36.59647 -88.94232 38850 ft 546 kts 99°
2026-05-05 00:04 36.57850 -88.84946 38853 ft 546 kts 100°
2026-05-05 00:04 36.56055 -88.75716 38859 ft 546 kts 99°
2026-05-05 00:05 36.54247 -88.66459 38865 ft 545 kts 100°
2026-05-05 00:05 36.52442 -88.57257 38862 ft 544 kts 99°
2026-05-05 00:06 36.50637 -88.48093 38874 ft 543 kts 100°
2026-05-05 00:06 36.48815 -88.38884 38880 ft 542 kts 100°
2026-05-05 00:07 36.47326 -88.31387 38875 ft 542 kts 101°
2026-05-05 00:07 36.45943 -88.24456 38892 ft 541 kts 100°
2026-05-05 00:08 36.44412 -88.16795 38885 ft 540 kts 100°
2026-05-05 00:08 36.42582 -88.07681 38895 ft 541 kts 101°
2026-05-05 00:09 36.40741 -87.98551 38876 ft 541 kts 101°
2026-05-05 00:09 36.38898 -87.89457 38878 ft 539 kts 101°
2026-05-05 00:10 36.37054 -87.80392 38890 ft 538 kts 100°
2026-05-05 00:10 36.35191 -87.71269 38879 ft 538 kts 101°
2026-05-05 00:11 36.33341 -87.62250 38893 ft 536 kts 101°
2026-05-05 00:11 36.31484 -87.53228 38896 ft 535 kts 101°
2026-05-05 00:12 36.29632 -87.44268 38895 ft 534 kts 101°
2026-05-05 00:12 36.27775 -87.35328 38911 ft 532 kts 101°
2026-05-05 00:13 36.26705 -87.30190 38894 ft 532 kts 102°
2026-05-05 00:13 36.25208 -87.23019 38885 ft 530 kts 102°
2026-05-05 00:14 36.23350 -87.14149 38919 ft 529 kts 102°
2026-05-05 00:14 36.21487 -87.05295 38918 ft 530 kts 102°
2026-05-05 00:15 36.19604 -86.96382 38913 ft 530 kts 102°
2026-05-05 00:15 36.17724 -86.87516 38934 ft 528 kts 102°
2026-05-05 00:16 36.15839 -86.78665 38950 ft 527 kts 102°
2026-05-05 00:16 36.13963 -86.69868 38944 ft 525 kts 102°
2026-05-05 00:17 36.12593 -86.61037 38942 ft 521 kts 96°
2026-05-05 00:17 36.11343 -86.52087 38944 ft 521 kts 97°
2026-05-05 00:18 36.10103 -86.43281 38929 ft 521 kts 97°
2026-05-05 00:18 36.08858 -86.34491 38942 ft 519 kts 97°
2026-05-05 00:19 36.08175 -86.29694 38942 ft 518 kts 98°
2026-05-05 00:19 36.07228 -86.23071 38950 ft 518 kts 98°
2026-05-05 00:20 36.05877 -86.13668 38938 ft 518 kts 98°
2026-05-05 00:20 36.04609 -86.04896 38953 ft 517 kts 97°
2026-05-05 00:21 36.03336 -85.96143 38922 ft 517 kts 98°
2026-05-05 00:21 36.02064 -85.87440 38936 ft 516 kts 98°
2026-05-05 00:22 36.00782 -85.78723 38937 ft 514 kts 98°
2026-05-05 00:22 35.99507 -85.70097 38946 ft 514 kts 98°
2026-05-05 00:23 35.98211 -85.61370 38972 ft 514 kts 98°
2026-05-05 00:23 35.96918 -85.52712 38965 ft 513 kts 98°
2026-05-05 00:24 35.95610 -85.43999 38980 ft 513 kts 98°
2026-05-05 00:24 35.94319 -85.35437 38961 ft 513 kts 98°
2026-05-05 00:25 35.93615 -85.30792 38979 ft 511 kts 99°
2026-05-05 00:25 35.92645 -85.24409 39010 ft 511 kts 99°
2026-05-05 00:26 35.91297 -85.15578 39000 ft 512 kts 99°
2026-05-05 00:26 35.89980 -85.06992 39015 ft 511 kts 99°
2026-05-05 00:27 35.89233 -85.02143 39001 ft 512 kts 99°
2026-05-05 00:27 35.88448 -84.97053 38987 ft 511 kts 99°
2026-05-05 00:28 35.87761 -84.92616 38997 ft 511 kts 99°
2026-05-05 00:28 35.86372 -84.83691 39013 ft 510 kts 99°
2026-05-05 00:29 35.85026 -84.75072 38989 ft 510 kts 99°
2026-05-05 00:29 35.83672 -84.66452 38981 ft 510 kts 99°
2026-05-05 00:30 35.82355 -84.58101 38972 ft 510 kts 100°
2026-05-05 00:30 35.80992 -84.49502 38956 ft 509 kts 99°
2026-05-05 00:31 35.79627 -84.40931 38957 ft 508 kts 99°
2026-05-05 00:31 35.78366 -84.33049 38969 ft 508 kts 100°
2026-05-05 00:32 35.77510 -84.27724 38964 ft 508 kts 100°
2026-05-05 00:32 35.76438 -84.21070 38992 ft 507 kts 100°
2026-05-05 00:33 35.75094 -84.12761 38983 ft 506 kts 101°
2026-05-05 00:33 35.73714 -84.04275 38984 ft 506 kts 101°
2026-05-05 00:34 35.72354 -83.95942 39003 ft 507 kts 101°
2026-05-05 00:34 35.70953 -83.87402 38996 ft 507 kts 101°
2026-05-05 00:35 35.69577 -83.79056 39000 ft 506 kts 101°
2026-05-05 00:35 35.68167 -83.70538 39003 ft 506 kts 101°
2026-05-05 00:36 35.66784 -83.62225 39005 ft 506 kts 101°
2026-05-05 00:36 35.65362 -83.53711 39026 ft 506 kts 101°
2026-05-05 00:37 35.63966 -83.45389 39015 ft 505 kts 101°
2026-05-05 00:37 35.62561 -83.37057 39020 ft 505 kts 101°
2026-05-05 00:38 35.61690 -83.31913 39078 ft 504 kts 101°
2026-05-05 00:38 35.60970 -83.27676 39065 ft 505 kts 101°
2026-05-05 00:39 35.60086 -83.22486 39067 ft 506 kts 102°
2026-05-05 00:39 35.58684 -83.14272 39066 ft 505 kts 101°
2026-05-05 00:40 35.57243 -83.05873 39080 ft 504 kts 101°
2026-05-05 00:40 35.55881 -82.97960 39067 ft 504 kts 102°
2026-05-05 00:41 35.54423 -82.89525 39039 ft 503 kts 102°
2026-05-05 00:41 35.52993 -82.81290 39050 ft 503 kts 101°
2026-05-05 00:42 35.51524 -82.72868 39076 ft 503 kts 102°
2026-05-05 00:42 35.50091 -82.64686 39065 ft 504 kts 101°
2026-05-05 00:43 35.48617 -82.56301 39069 ft 504 kts 102°
2026-05-05 00:43 35.47167 -82.48091 39060 ft 504 kts 101°
2026-05-05 00:44 35.45676 -82.39685 39079 ft 503 kts 102°
2026-05-05 00:44 35.44484 -82.32984 39077 ft 504 kts 102°
2026-05-05 00:45 35.43437 -82.27151 39054 ft 503 kts 103°
2026-05-05 00:45 35.42471 -82.21786 39048 ft 503 kts 103°
2026-05-05 00:46 35.41097 -82.14170 39044 ft 503 kts 102°
2026-05-05 00:46 35.39584 -82.05805 39014 ft 503 kts 102°
2026-05-05 00:47 35.38097 -81.97619 39034 ft 502 kts 103°
2026-05-05 00:47 35.36576 -81.89274 39035 ft 502 kts 102°
2026-05-05 00:48 35.35303 -81.82312 39030 ft 502 kts 103°
2026-05-05 00:48 35.33769 -81.73958 39024 ft 502 kts 103°
2026-05-05 00:49 35.32267 -81.65806 39022 ft 502 kts 103°
2026-05-05 00:49 35.30725 -81.57469 39030 ft 501 kts 103°
2026-05-05 00:50 35.29221 -81.49367 39024 ft 502 kts 103°
2026-05-05 00:50 35.27675 -81.41074 39030 ft 501 kts 103°
2026-05-05 00:51 35.26206 -81.33225 39021 ft 501 kts 103°
2026-05-05 00:51 35.25335 -81.28583 39030 ft 500 kts 103°
2026-05-05 00:52 35.24256 -81.22839 39030 ft 501 kts 103°
2026-05-05 00:52 35.22664 -81.14324 39025 ft 501 kts 103°
2026-05-05 00:53 35.21099 -81.06002 39027 ft 501 kts 103°
2026-05-05 00:53 35.19511 -80.97616 39021 ft 501 kts 103°
2026-05-05 00:54 35.17606 -80.89384 39030 ft 501 kts 108°
2026-05-05 00:54 35.15562 -80.81499 39034 ft 501 kts 108°
2026-05-05 00:55 35.13419 -80.73250 39031 ft 501 kts 108°
2026-05-05 00:55 35.11293 -80.65080 39034 ft 501 kts 108°
2026-05-05 00:56 35.09171 -80.56950 39024 ft 501 kts 108°
2026-05-05 00:56 35.07033 -80.48782 39022 ft 501 kts 108°
2026-05-05 00:57 35.04890 -80.40619 39012 ft 501 kts 109°
2026-05-05 00:57 35.02935 -80.33201 39017 ft 500 kts 109°
2026-05-05 00:58 35.01514 -80.27822 39017 ft 500 kts 109°
2026-05-05 00:58 34.99756 -80.21168 39017 ft 500 kts 109°
2026-05-05 00:59 34.97615 -80.13089 39024 ft 499 kts 109°
2026-05-05 00:59 34.95463 -80.04990 39026 ft 500 kts 109°
2026-05-05 01:00 34.93299 -79.96875 39037 ft 500 kts 109°
2026-05-05 01:00 34.91135 -79.88782 39043 ft 500 kts 109°
2026-05-05 01:01 34.89340 -79.82090 39039 ft 501 kts 109°
2026-05-05 01:01 34.88067 -79.77352 39045 ft 501 kts 109°
2026-05-05 01:02 34.86231 -79.70534 39047 ft 501 kts 109°
2026-05-05 01:02 34.84037 -79.62412 39042 ft 501 kts 109°
2026-05-05 01:02 34.82947 -79.58382 38923 ft 492 kts 109°
2026-05-05 01:03 34.81878 -79.54434 38481 ft 481 kts 110°
2026-05-05 01:03 34.80826 -79.50558 37637 ft 480 kts 109°
2026-05-05 01:03 34.79770 -79.46678 36516 ft 482 kts 109°
2026-05-05 01:03 34.78704 -79.42764 35518 ft 485 kts 110°
2026-05-05 01:04 34.77636 -79.38850 34496 ft 488 kts 110°
2026-05-05 01:04 34.75967 -79.32741 32520 ft 490 kts 110°
2026-05-05 01:04 34.75410 -79.30703 31884 ft 489 kts 109°
2026-05-05 01:05 34.74266 -79.26524 30800 ft 482 kts 109°
2026-05-05 01:05 34.73125 -79.22363 29854 ft 472 kts 109°
2026-05-05 01:05 34.72079 -79.18556 28362 ft 477 kts 109°
2026-05-05 01:05 34.71014 -79.14683 26725 ft 482 kts 109°
2026-05-05 01:06 34.69954 -79.10836 25252 ft 482 kts 109°
2026-05-05 01:06 34.68893 -79.06990 23921 ft 477 kts 108°
2026-05-05 01:06 34.67854 -79.03225 22683 ft 469 kts 109°
2026-05-05 01:06 34.66819 -78.99481 21083 ft 470 kts 108°
2026-05-05 01:07 34.65783 -78.95741 19484 ft 469 kts 108°
2026-05-05 01:07 34.64744 -78.91994 18073 ft 459 kts 108°
2026-05-05 01:07 34.63731 -78.88347 17176 ft 441 kts 108°
2026-05-05 01:07 34.62772 -78.84896 16452 ft 421 kts 108°
2026-05-05 01:08 34.61849 -78.81586 15818 ft 400 kts 108°
2026-05-05 01:08 34.60969 -78.78429 15276 ft 381 kts 108°
2026-05-05 01:08 34.60134 -78.75441 14758 ft 377 kts 107°
2026-05-05 01:08 34.59280 -78.72385 13985 ft 377 kts 107°
2026-05-05 01:09 34.58423 -78.69314 12052 ft 397 kts 107°
2026-05-05 01:09 34.57539 -78.66153 10194 ft 405 kts 107°
2026-05-05 01:09 34.56637 -78.62935 8605 ft 401 kts 108°
2026-05-05 01:09 34.55748 -78.59766 7405 ft 385 kts 108°
2026-05-05 01:10 34.54934 -78.56874 7385 ft 341 kts 108°
2026-05-05 01:10 34.54185 -78.54215 6776 ft 328 kts 108°
2026-05-05 01:10 34.53450 -78.51605 5872 ft 324 kts 108°
2026-05-05 01:10 34.52716 -78.49062 5003 ft 319 kts 112°
2026-05-05 01:11 34.51702 -78.46708 4111 ft 313 kts 125°
2026-05-05 01:11 34.50409 -78.44627 3600 ft 294 kts 130°
2026-05-05 01:11 34.49179 -78.42734 3329 ft 274 kts 130°
2026-05-05 01:11 34.48040 -78.40963 2880 ft 264 kts 130°
2026-05-05 01:12 34.46914 -78.39206 2375 ft 256 kts 133°
2026-05-05 01:12 34.45531 -78.38008 2120 ft 230 kts 164°
2026-05-05 01:12 34.44073 -78.37554 2087 ft 206 kts 170°
2026-05-05 01:12 34.42679 -78.37189 1681 ft 205 kts 170°
2026-05-05 01:13 34.41233 -78.36830 990 ft 216 kts 170°
2026-05-05 01:13 34.39755 -78.36491 600 ft 212 kts 170°
2026-05-05 01:13 34.38351 -78.36099 534 ft 198 kts 160°
2026-05-05 01:13 34.37266 -78.35296 479 ft 166 kts 142°
2026-05-05 01:14 34.36588 -78.34781 472 ft 154 kts 158°
2026-05-05 01:14 34.35901 -78.34463 456 ft 174 kts 160°
2026-05-05 01:14 34.34757 -78.33761 438 ft 182 kts 153°
2026-05-05 01:14 34.33761 -78.32833 466 ft 180 kts 128°
2026-05-05 01:15 34.33118 -78.31521 472 ft 179 kts 121°
2026-05-05 01:15 34.32533 -78.30197 473 ft 179 kts 121°
2026-05-05 01:15 34.31940 -78.28854 477 ft 179 kts 121°
2026-05-05 01:15 34.31489 -78.27431 467 ft 183 kts 97°
2026-05-05 01:16 34.31573 -78.25895 476 ft 184 kts 88°
2026-05-05 01:16 34.31724 -78.24345 478 ft 184 kts 90°
2026-05-05 01:16 34.31732 -78.22776 481 ft 188 kts 92°
2026-05-05 01:16 34.31682 -78.21151 472 ft 199 kts 98°
2026-05-05 01:17 34.31493 -78.19434 585 ft 215 kts 101°
2026-05-05 01:17 34.31272 -78.17633 1281 ft 217 kts 102°
2026-05-05 01:17 34.31069 -78.15812 1481 ft 214 kts 101°
2026-05-05 01:17 34.30855 -78.14036 1490 ft 209 kts 104°
2026-05-05 01:18 34.30511 -78.11893 1484 ft 207 kts 105°
2026-05-05 01:18 34.30231 -78.10176 1482 ft 207 kts 105°
2026-05-05 01:18 34.29950 -78.08451 1483 ft 207 kts 105°
2026-05-05 01:18 34.29668 -78.06725 1478 ft 207 kts 105°
2026-05-05 01:19 34.29386 -78.05019 1481 ft 207 kts 105°
2026-05-05 01:19 34.29100 -78.03304 1482 ft 206 kts 105°
2026-05-05 01:19 34.28815 -78.01580 1485 ft 206 kts 105°
2026-05-05 01:19 34.28532 -77.99868 1486 ft 206 kts 105°
2026-05-05 01:20 34.28249 -77.98156 1486 ft 201 kts 105°
2026-05-05 01:20 34.27989 -77.96530 1494 ft 191 kts 105°
2026-05-05 01:20 34.27742 -77.94959 1487 ft 188 kts 105°
2026-05-05 01:20 34.27495 -77.93395 1483 ft 186 kts 105°
2026-05-05 01:21 34.27261 -77.91838 1483 ft 186 kts 101°
2026-05-05 01:21 34.27484 -77.90264 1476 ft 200 kts 72°
2026-05-05 01:21 34.28087 -77.88649 2184 ft 215 kts 63°
2026-05-05 01:21 34.28876 -77.87058 2845 ft 225 kts 60°
2026-05-05 01:22 34.29753 -77.85465 2979 ft 226 kts 46°
2026-05-05 01:22 34.31101 -77.84560 2981 ft 220 kts
2026-05-05 01:22 34.32606 -77.84750 2990 ft 215 kts 342°
2026-05-05 01:22 34.34119 -77.85289 2975 ft 240 kts 340°
2026-05-05 01:23 34.35817 -77.85929 2959 ft 262 kts 340°
2026-05-05 01:23 34.37612 -77.86610 2971 ft 268 kts 340°
2026-05-05 01:23 34.39418 -77.87293 2978 ft 269 kts 340°
2026-05-05 01:23 34.41222 -77.87973 2977 ft 269 kts 340°
2026-05-05 01:24 34.43029 -77.88650 2978 ft 269 kts 340°
2026-05-05 01:24 34.44835 -77.89326 2978 ft 269 kts 340°
2026-05-05 01:24 34.46644 -77.90003 2980 ft 269 kts 340°
2026-05-05 01:24 34.48448 -77.90717 2978 ft 268 kts 334°
2026-05-05 01:25 34.49904 -77.92086 2976 ft 260 kts 302°
2026-05-05 01:25 34.50496 -77.94110 2975 ft 252 kts 269°
2026-05-05 01:25 34.50205 -77.96095 2985 ft 224 kts 251°